Regional Weather Roundup
Issued by NWS

Home | Current Version | Previous Version | Graphics & Text | Print | Product List | Glossary On
Versions: 1 2 3 4 5 6 7 8 9 10 11 12 13 14 15 16 17 18 19 20 21 22 23 24 25 26 27 28 29 30 31 32 33 34 35 36 37 38 39 40 41 42 43 44 45 46 47 48 49 50
000
ASUS45 KTFX 200404
RWRMT
MONTANA HOURLY WEATHER ROUNDUP
NATIONAL WEATHER SERVICE GREAT FALLS MT
1004 PM MDT SUN OCT 19 2014

NOTE: "FAIR" INDICATES FEW OR NO CLOUDS BELOW 12000 FEET WITH NO
SIGNIFICANT WEATHER AND/OR OBSTRUCTIONS TO VISIBILITY.

* THESE STATIONS ARE NOT UNDER NWS QUALITY CONTROL. THEY DO NOT
   REPORT WEATHER SUCH AS PRECIPITATION OR FOG.

MTZ001>007-043-200500-
WEST OF THE DIVIDE
CITY           SKY/WX    TMP DP  RH WIND       PRES   REMARKS
* ESSEX        N/A       42  39  89 E1         N/A
* LINCOLN      N/A       40  33  76 SE1        N/A
* LOOKOUT PASS N/A       47  42  83 S1         N/A
* POLSON       N/A       48  39  71 N/A        N/A
* RONAN APT    CLEAR     39  36  89 N/A        N/A
* SEELEY LAKE  N/A       38  34  86 N2         N/A
* THOMP F APT  CLEAR     46  19  34 NE5        N/A
$$

MTZ008-052>055-200500-
SOUTHWEST MONTANA
CITY           SKY/WX    TMP DP  RH WIND       PRES   REMARKS
* THREE FORKS  CLEAR     41  41 100 N/A        N/A
* BOULDER HILL N/A       51  26  38 S6         N/A
* MONIDA PASS  N/A       40  25  55 SE1        N/A
* RAYNOLDS PAS N/A       41  28  60 SW3        N/A
* WHITEHALL    N/A       46  30  54 N6G12      N/A
* WISE RIVER   N/A       43  28  56 SW3        N/A
$$

MTZ009>010-012-014-046-048-049-054-200500-
EAST SLOPES AND CENTRAL MONTANA
CITY           SKY/WX    TMP DP  RH WIND       PRES   REMARKS
* CONRAD       CLEAR     43  32  65 N/A        N/A
* DEARBORN     N/A       49  38  66 S3         N/A
* EAST GLACIER N/A       55  33  43 W22G29     N/A
* MONARCH      N/A       48  25  41 S9         N/A
* PENDROY      N/A       51  30  45 SW4G11     N/A
* ROGERS PASS  N/A       54  32  43 SW3        N/A
* SAINT MARY   N/A       59  33  38 S7G15      N/A
* SWEET GRASS  N/A       58  29  33 SW16       N/A
$$

MTZ011-013-016-021-035-040-045-047-050-051-200500-
NORTH CENTRAL MONTANA
CITY           SKY/WX    TMP DP  RH WIND       PRES   REMARKS
* CHINOOK      CLEAR     52  43  72 E9        29.88S
* FORT BENTON  CLEAR     54  39  57 CALM      29.89S
* CHESTER      N/A       53  38  57 S5G12      N/A
* DENTON       N/A       47  35  63 S11        N/A
* GEYSER       N/A       44  30  58 SW7        N/A
* JUDITH GAP   N/A       43  33  68 SW2        N/A
* LOMA         N/A       56  41  57 NE8        N/A
$$

MTZ017>020-022>027-061-062-200500-
NORTHEAST MONTANA
CITY           SKY/WX    TMP DP  RH WIND       PRES   REMARKS
JORDAN         CLEAR     52  37  57 SE6       29.95F
* BEAVER HILL  N/A       50  36  59 SE10       N/A
* CIRCLE       N/A       52  40  64 N/A        N/A
* LINDSAY DVD  N/A       50  37  61 SE2        N/A
* NAVAJO       N/A       50  38  64 SW8        N/A
* SACO         N/A       50  43  77 E4         N/A
$$

MTZ028>042-056>058-200500-
SOUTHCENTRAL AND SOUTHEAST MONTANA
CITY           SKY/WX    TMP DP  RH WIND       PRES   REMARKS
* LAUREL APT   CLEAR     55  32  42 N/A        N/A
* ROUNDUP APT  CLEAR     59  34  39 N/A        N/A
* ALZADA       N/A       50  38  64 E7         N/A
* HYSHAM       N/A       63  30  29 E2G10      N/A
* LAME DEER    N/A       58  34  41 SE5        N/A
* REED POINT   N/A       45  33  63 SE1        N/A
* ROSCOE HILL  N/A       55  24  30 SW8        N/A
$$

REGIONAL REPORTS...WYOMING/IDAHO/WASHINGTON
CITY           SKY/WX    TMP DP  RH WIND       PRES   REMARKS
YELLOWSTONE LA CLEAR     28  21  75 NW3       30.24S

$$




USA.gov is the U.S. government's official web portal to all federal, state and local government web resources and services.